AO-07 1 07530U 74089B 15077.51321216 -.00000038 00000-0 34494-4 0 9994 2 07530 101.5114 055.6845 0012284 118.6487 352.0515 12.53612688845892 FO-29 1 24278U 96046B 15077.19736380 .00000020 00000-0 59172-4 0 9995 2 24278 098.5307 058.3369 0349589 306.8756 114.1904 13.53047377917720 SO-33 1 25509U 98061B 15077.18580778 .00001200 00000-0 22461-3 0 9990 2 25509 031.4333 047.4972 0348153 355.5403 004.2161 14.29905555856381 RS-22 1 27939U 03042A 15077.63999038 .00001341 00000-0 25353-3 0 9996 2 27939 097.8297 243.6211 0012708 319.1420 040.8845 14.65869717612924 HO-68 1 36122U 09072B 15077.56839070 -.00000060 00000-0 -43517-4 0 9992 2 36122 100.2077 125.5626 0007421 331.2471 028.8242 13.16324711252537 AO-73 1 39444U 13066AE 15076.82563967 .00003015 00000-0 39442-3 0 9999 2 39444 097.7406 142.9142 0061670 074.1667 286.6332 14.79809423 69904 EO-79 1 40025U 14033R 15077.77536143 .00004006 00000-0 45588-3 0 9991 2 40025 097.9619 337.8940 0014163 117.0251 243.2513 14.86713971 40360 UO-11 1 14781U 84021B 15077.17524496 .00001179 00000-0 15422-3 0 9999 2 14781 097.8130 136.4551 0008877 017.7794 342.3728 14.82226942668549 AO-16 1 20439U 90005D 15077.81967135 .00000246 00000-0 10672-3 0 9993 2 20439 098.5344 015.3745 0012013 069.7627 306.9845 14.32505652313805 LO-19 1 20442U 90005G 15077.41526321 .00000245 00000-0 10584-3 0 9992 2 20442 098.5054 014.8072 0012890 059.8994 300.3466 14.32700334313940 AO-27 1 22825U 93061C 15076.95285035 .00000186 00000-0 89683-4 0 9997 2 22825 098.6990 027.0885 0007742 209.6554 194.9660 14.29848326119905 IO-26 1 22826U 93061D 15077.02088386 .00000211 00000-0 98633-4 0 9991 2 22826 098.6932 027.3355 0008399 201.1799 158.9036 14.30161848120058 GO-32 1 25397U 98043D 15077.44404981 .00000115 00000-0 69120-4 0 9993 2 25397 098.5099 030.7810 0000746 166.4919 306.0533 14.23525815866882 NO-44 1 26931U 01043C 15077.17741915 .00000223 00000-0 11784-3 0 9995 2 26931 067.0513 051.8464 0006542 263.9922 096.0434 14.30274228702786 SO-50 1 27607U 02058C 15076.55344825 .00001120 00000-0 18117-3 0 9997 2 27607 064.5543 118.5589 0076456 306.3804 053.0260 14.74525767657776 CO-55 1 27844U 03031E 15076.84843390 .00000352 00000-0 18016-3 0 9999 2 27844 098.6977 086.6746 0009317 198.4481 218.8453 14.21737755607461 CO-57 1 27848U 03031J 15077.05213689 .00000350 00000-0 18045-3 0 9999 2 27848 098.7073 086.7349 0009124 205.2916 187.9015 14.21394106607402 AO-51 1 28375U 04025K 15076.83347400 .00000269 00000-0 92806-4 0 9990 2 28375 098.2847 019.9454 0081628 245.2357 114.0323 14.41608627563322 CP3 1 31129U 07012N 15077.67401985 .00001421 00000-0 31685-3 0 9990 2 31129 097.9709 047.4282 0095658 235.4424 176.6409 14.55586059419952 CO-65 1 32785U 08021C 15077.19173708 .00002972 00000-0 34126-3 0 9991 2 32785 097.6609 124.0719 0013665 013.6934 079.8350 14.86514181372716 PRISM 1 33493U 09002B 15077.74489230 .00008562 00000-0 83979-3 0 9990 2 33493 098.2522 270.7731 0015909 265.4383 094.5056 14.92397145333085 SOHLA-1 1 33496U 09002E 15077.19037218 .00000790 00000-0 13638-3 0 9997 2 33496 098.1976 204.3803 0007608 093.2449 026.9977 14.71243948329792 TISAT-1 1 36799U 10035E 15077.73126310 .00006803 00000-0 74836-3 0 9994 2 36799 098.0124 177.1211 0014112 140.8684 013.9795 14.87855574253503 STUDSAT 1 36801U 10035G 15076.78170963 .00032957 00000-0 21565-2 0 9994 2 36801 098.0522 191.5010 0005856 099.9340 053.3577 15.07672630254177 ALMASAT-1 1 38078U 12006B 15077.72184375 .00071415 39482-5 12878-2 0 9999 2 38078 069.4595 107.4697 0510284 021.9131 340.3778 14.70798340161695 XATCOBEO 1 38082U 12006F 14243.34478676 .13583328 43697-5 37939-3 0 9990 2 38082 069.3815 097.0364 0033293 225.1799 135.4582 16.41261006136239 CUBEBUG-1 1 39153U 13018D 15077.70392510 .00003088 00000-0 42521-3 0 9997 2 39153 098.0200 162.3388 0017546 181.4061 178.7104 14.78889664102100 ESTCUBE-1 1 39161U 13021C 15077.80366195 .00002420 00000-0 40325-3 0 9990 2 39161 098.0745 161.5275 0008872 235.7612 124.2741 14.70903168 99955 DUCHIFAT-1 1 40021U 14033M 15077.78176834 .00006469 00000-0 71983-3 0 9998 2 40021 097.9627 338.1009 0015189 120.8115 239.4786 14.87388513 40365 NANOSATCBR1 1 40024U 14033Q 15077.68150290 .00006639 00000-0 74487-3 0 9999 2 40024 097.9624 337.8649 0014057 117.6630 242.6239 14.87058632 40343 DTUSAT-2 1 40030U 14033W 15077.77743186 .00003310 00000-0 38142-3 0 9999 2 40030 097.9579 337.7045 0013839 109.9283 250.3447 14.86321830 40353 ANTELSAT 1 40034U 14033AA 15077.80550286 .00004758 00000-0 73732-3 0 9995 2 40034 097.9542 331.8045 0061266 050.0221 310.6411 14.72375601 39996 MET-2/21 1 22782U 93055A 15077.19958544 .00000011 00000-0 -30942-5 0 9994 2 22782 082.5493 315.8805 0021533 213.9889 261.4303 13.83763728 88012 OKEAN-4 1 23317U 94066A 15077.22223802 .00001896 00000-0 21150-3 0 9998 2 23317 082.5407 170.8550 0018731 270.8046 149.8684 14.86430096103800 NOAA-14 1 23455U 94089A 15077.49719753 .00000058 00000-0 53418-4 0 9992 2 23455 098.7557 160.8016 0009062 345.2846 144.4100 14.14027978 42714 NOAA-15 1 25338U 98030A 15077.47746616 .00000278 00000-0 13608-3 0 9990 2 25338 098.7707 076.0669 0011741 073.8442 286.4029 14.25581970875910 RESURS 1 25394U 98043A 15077.53851277 .00000057 00000-0 42532-4 0 9997 2 25394 098.4547 035.9421 0001736 137.4784 337.9187 14.24447266867376 FENGYUN1 1 25730U 99025A 15076.84131193 .00001316 00000-0 72697-3 0 9996 2 25730 098.9372 041.7794 0020833 051.4006 338.6825 14.13068732816152 OKEAN-0 1 25860U 99039A 15077.87722683 .00001143 00000-0 17396-3 0 9992 2 25860 098.0839 045.8402 0000931 094.0617 296.1515 14.75881939842663 NOAA-16 1 26536U 00055A 15077.46296443 .00000085 00000-0 69461-4 0 9993 2 26536 098.9521 143.4881 0011454 126.6236 233.5991 14.13081768746848 NOAA-17 1 27453U 02032A 15077.49302648 .00000138 00000-0 76688-4 0 9995 2 27453 098.3343 068.0102 0012991 089.2516 271.0153 14.24861904661745 NOAA-18 1 28654U 05018A 15077.51452972 .00000204 00000-0 13651-3 0 9999 2 28654 099.1793 067.9720 0013702 211.5998 148.4351 14.12164221506274 NOAA-19 1 33591U 09005A 15077.45946498 .00000288 00000-0 18231-3 0 9990 2 33591 098.9807 027.1688 0015074 067.2610 293.0152 14.11893114314693 HUBBLE 1 20580U 90037B 15077.50368056 .00004592 00000-0 28759-3 0 9991 2 20580 028.4709 031.9496 0002945 346.5804 326.9269 15.07004161166116 ISS 1 25544U 98067A 15077.76871856 .00024048 00000-0 35320-3 0 9992 2 25544 051.6458 175.6897 0009097 112.1665 001.8645 15.55321654933962 CO-58 1 28895U 05043F 15077.07360943 .00001502 00000-0 30406-3 0 9990 2 28895 097.8229 269.6084 0016270 222.2138 137.7813 14.62582201500277 FALCON 1 30776U 07006E 15077.48671068 .00023023 00000-0 97536-3 0 9999 2 30776 035.4264 208.8951 0002012 195.5346 243.6550 15.22290031442460 MAST 1 31126U 07012K 15077.77683139 .00000938 00000-0 21240-3 0 9999 2 31126 097.9509 049.9772 0090250 217.2131 263.7538 14.55893104420331 CAPE1 1 31130U 07012P 15076.88146413 .00001113 00000-0 25196-3 0 9994 2 31130 097.9724 046.1690 0096317 239.7323 119.4317 14.55275514419604 COMPASS 1 32787U 08021E 15077.17117594 .00006099 00000-0 63591-3 0 9994 2 32787 097.6634 127.6217 0013048 002.1400 357.9871 14.90062625372954 AAUSAT2 1 32788U 08021F 15076.82409271 .00005919 00000-0 60285-3 0 9999 2 32788 097.6644 128.6480 0012397 001.0110 359.1132 14.91018755372984 DO-64 1 32789U 08021G 15077.20833529 .00022678 00000-0 19053-2 0 9997 2 32789 097.6858 138.6202 0010162 338.5013 057.3893 14.98270505373457 CO-66 1 32791U 08021J 15077.07407918 .00004750 00000-0 51893-3 0 9994 2 32791 097.6627 125.6384 0013961 007.6683 352.4745 14.88263727372763 RS-30 1 32953U 08025A 15077.85005224 .00000010 00000-0 -13620-7 0 9994 2 32953 082.5032 030.4135 0017568 279.7355 080.1745 12.43057673309381 METEOR-M 1 35865U 09049A 15077.65189336 .00000427 00000-0 21239-3 0 9993 2 35865 098.5110 121.1939 0002902 037.6568 322.4818 14.22001686285347 RS-38 1 35869U 09049E 15077.77263904 -.00000136 00000-0 -42239-4 0 9997 2 35869 098.5048 120.9847 0005031 028.3021 331.8358 14.22277095285402 JUGNU 1 37839U 11058B 15076.24961331 .00000435 00000-0 90048-4 0 9990 2 37839 019.9621 039.8551 0019224 113.0712 023.0986 14.12434622177208 SRMSAT 1 37841U 11058D 15076.34692704 .00000404 00000-0 77347-4 0 9992 2 37841 019.9722 064.0982 0012072 044.5945 099.3601 14.10452405176971 RAX-2 1 37853U 11061D 15077.09434174 .00011475 00000-0 71735-3 0 9991 2 37853 101.7120 243.4701 0200498 341.5920 131.6360 14.94563031183499 AUBIESAT 1 37854U 11061E 15077.18123295 .00012336 00000-0 73656-3 0 9992 2 37854 101.7165 246.6088 0197304 336.7391 075.8531 14.96499375183604 HRBE 1 37855U 11061F 15077.18049603 .00012166 00000-0 74056-3 0 9999 2 37855 101.7160 245.4468 0200350 338.8856 020.4164 14.95448467183540 RS-39 1 38051U 11062C 14288.65876392 .70201582 12497-4 27925-2 0 9995 2 38051 051.5964 324.1908 0006422 269.6897 186.8903 16.43533377153081 E-STAR 1 38079U 12006C 15016.13455217 .17990388 48979-5 52837-3 0 9992 2 38079 069.3967 125.0648 0013168 047.0341 316.5109 16.44007688156194 GOLIAT 1 38085U 12006J 15047.13271005 .15174231 50628-5 38163-3 0 9993 2 38085 069.4022 049.8202 0017770 344.8867 016.3100 16.44194733160691 HORYU-2 1 38340U 12025D 15077.09277169 .00003395 00000-0 52516-3 0 9991 2 38340 098.3030 044.7515 0012912 032.3798 327.8199 14.73901698152113 RS-40 1 38735U 12041C 15077.69033659 .00000040 00000-0 21992-3 0 9995 2 38735 082.4732 116.4124 0017299 022.1641 338.0180 12.42567500119676 PROITERES 1 38756U 12047B 15077.74950096 .00001660 00000-0 25081-3 0 9995 2 38756 098.2166 175.5373 0011747 222.5278 137.5059 14.75627318135667 BEESAT-3 1 39134U 13015E 15077.50297182 .00019628 00000-0 11769-2 0 9996 2 39134 064.8759 347.3277 0033865 263.4306 096.2961 15.10540915104990 BEESAT-2 1 39136U 13015G 15077.13635892 .00014104 00000-0 88178-3 0 9994 2 39136 064.8763 350.2131 0034467 263.4914 096.2283 15.09167734104914 LO-75 1 39382U 13064C 14295.69194059 .07301741 00000-0 36367-2 0 9993 2 39382 040.4713 030.2705 0002289 341.7175 018.4586 16.19795749470823 ZACUBE-1 1 39417U 13066B 15077.16916461 .00003194 00000-0 42163-3 0 9990 2 39417 097.7403 143.0762 0062225 073.6143 287.1898 14.79359811 71177 TRITON-1 1 39427U 13066M 15077.80604489 .00002907 00000-0 48221-3 0 9998 2 39427 097.7267 133.8366 0117821 095.6892 265.7762 14.66376970 70623 DELFIN3XT 1 39428U 13066N 15077.18163266 .00005073 00000-0 85036-3 0 9995 2 39428 097.7269 131.7322 0126816 101.9658 259.5795 14.64916757 70426 GOMX-1 1 39430U 13066Q 15077.61854756 .00002473 00000-0 46680-3 0 9990 2 39430 097.7200 127.2289 0155235 114.8275 246.9165 14.57780617 70181 MO-76 1 39436U 13066W 15077.14691269 .00055159 00000-0 41738-2 0 9999 2 39436 097.7540 153.0479 0023471 053.4214 306.9166 15.01873471 71808 LO-74 1 39440U 13066AA 15077.12608723 .00003073 00000-0 44695-3 0 9999 2 39440 097.7354 139.1363 0083984 082.3674 278.7064 14.74206080 70929 PUCPSAT-1 1 39442U 13066AC 15077.19046017 .00005529 00000-0 60125-3 0 9994 2 39442 097.7477 149.2949 0034615 065.0117 295.4689 14.88018502 70335 SHINAISAT 1 39572U 14009A 14328.13084988 .28848087 76253-5 66603-3 0 9996 2 39572 064.9728 197.0096 0013534 259.7861 100.1802 16.45181032 42403 TEIKYOSAT 1 39576U 14009E 14297.85867254 .09345816 76764-5 25176-3 0 9997 2 39576 064.9818 300.5833 0008491 317.3597 044.3862 16.45008906 37698 CO-77 1 39577U 14009F 14244.78324653 .10543803 76292-5 32273-3 0 9993 2 39577 064.9920 123.7668 0014904 269.7208 091.1897 16.43552757 29380 SPROUT 1 39770U 14029E 15077.54226803 .00001124 00000-0 14287-3 0 9995 2 39770 097.8675 175.6358 0010892 133.3996 226.8151 14.83530405 44195 POPSAT-HIP1 1 40028U 14033U 15077.80489763 .00004967 00000-0 56551-3 0 9991 2 40028 097.9639 337.9794 0015770 115.8355 244.4539 14.86561164 40354 EO-80 1 40032U 14033Y 15077.78259950 .00003986 00000-0 45848-3 0 9993 2 40032 097.9580 337.7215 0013634 112.2540 248.0222 14.86282195 40357 VELOX-1 1 40057U 14034E 15077.74562455 .00003897 00000-0 58137-3 0 9990 2 40057 098.2218 154.3696 0012304 163.0289 197.1354 14.75374591 38547 DAURIA DX 1 1 40071U 14037C 15077.75363625 .00002329 00000-0 31384-3 0 9992 2 40071 098.3657 145.4234 0009572 162.8755 197.2767 14.80175396 37410 UKUBE-1 1 40074U 14037F 15077.75820074 .00004816 00000-0 61787-3 0 9994 2 40074 098.3665 145.9380 0005216 166.4346 193.7001 14.81735058 37449 CHASQUI-1 1 40117U 98067ET 15014.73322295 .07508583 12315-4 10026-2 0 9990 2 40117 051.6189 112.4445 0004239 337.2783 022.7551 16.34635278 23368 HODOYOSHI-1 1 40299U 14070B 15077.77571818 .00002655 00000-0 13192-3 0 9997 2 40299 097.4606 160.4543 0014858 090.1500 061.4475 15.18438284 20094 CHUBUSAT-1 1 40300U 14070C 15077.81137638 .00008638 00000-0 44192-3 0 9994 2 40300 097.4583 160.0516 0024314 089.5457 016.8620 15.16615581 20077 QSAT-EOS 1 40301U 14070D 15077.80177534 .00015660 00000-0 82408-3 0 9998 2 40301 097.4542 159.5728 0034597 089.8110 056.3682 15.15197611 20046 TSUBAME 1 40302U 14070E 15076.77058168 .00007054 00000-0 40566-3 0 9992 2 40302 097.4531 157.9861 0045451 094.0500 001.8844 15.11885267 19856 FIREBIRD FU3 1 40377U 15003B 15077.25454044 .00011145 00000-0 57898-3 0 9990 2 40377 099.1267 094.0169 0163965 190.6187 169.1663 15.05351516 6862 FIREBIRD FU4 1 40378U 15003C 15077.85192555 .00015588 00000-0 80690-3 0 9994 2 40378 099.1215 094.7207 0163585 188.4686 171.4362 15.05407788 6958 GRIFEX 1 40379U 15003D 15077.85801117 .00012172 00000-0 63609-3 0 9993 2 40379 099.1262 094.7219 0164043 189.4085 170.5178 15.05115755 6953 LAMBDA-SAT 1 40458U 98067GB 15077.69048534 .00206455 00000-0 24849-2 0 9991 2 40458 051.6537 175.8512 0010222 128.6102 029.2508 15.59548146 11912 /EX
